Вернуться в каталог

DELTA 1 DEB

АктивенLEO
NORAD 7203·DEBRIS·🇺🇸 United States

Запущен Nov 6, 1973 с Vandenberg Space Force Base

Loading…

Ближайшие Пролёты (ближайшие 24 часа)

TLE

СвежийSource: Space-Track

Эпоха: Sep 13, 2026, 16:15 UTC

1 07203U 73086FM  26256.67711953  .00000116  00000-0  17781-3 0  9991
2 07203 102.0089 305.3449 0443375  19.1679 342.5551 13.40904712572393

Отслеживайте DELTA 1 DEB в реальном времени с AllMySat

Download on the App Store